COSMOS 2500 (755)

Last updated on Tue Sep 16 2025 00:03:19 GMT+0000 (Coordinated Universal Time)

1 40001U 14032A 25258.05625865 -.00000057 00000+0 00000+0 0 9995 2 40001 65.3905 323.0489 0009235 205.8111 154.2070 2.13105843 87596
UTC large
Height (km)
Speed (km/s)
/
Latitude / Longitude
Inclination (degrees)
Orbital Period (minutes)
Azimuth
Elevation
Range (km)
Doppler Factor

Next 0 passes for location: London (51.5072 / 0.1276)

Sorry there are no passes over London.